Voltar ao catálogo

CZ-6A DEB

AtivoPO
NORAD 54265·DEBRIS·🇨🇳 China

Lançado Nov 11, 2022 de Taiyuan Satellite Launch Center

Loading…

Próximas Passagens (próximas 24 horas)

TLE

AtualizadoSource: Space-Track

Época: Sep 14, 2026, 14:45 UTC

1 54265U 22151G   26257.61520654  .00000237  00000-0  33089-3 0  9992
2 54265  99.0368 134.4096 0379040 178.3207 181.9296 13.39865541187655

Acompanhe CZ-6A DEB em tempo real com AllMySat

Download on the App Store